K9UO Weather Reports


time (UTC)temp
C
wind
direction
speed
KPH
gust
KPH
rain 1hr
cm
rain 24hr
cm
rain mn
cm
humidity
%
barometer
mb
20260831170515 28 237 1.6 9.7 0.00 0.00 0.00 70 1019.5
20260831170033 28 232 4.8 12.9 0.00 0.00 0.00 72 1019.5
20260831165503 28 217 4.8 12.9 0.00 0.00 0.00 70 1019.5
20260831165003 28 225 3.2 11.3 0.00 0.00 0.00 74 1019.5
20260831164517 27 235 3.2 11.3 0.00 0.00 0.00 75 1019.5
20260831164002 27 211 3.2 9.7 0.00 0.00 0.00 75 1019.5
20260831163506 27 196 4.8 9.7 0.00 0.00 0.00 74 1019.5
20260831163018 27 200 3.2 9.7 0.00 0.00 0.00 75 1019.3
20260831162513 27 169 4.8 9.7 0.00 0.00 0.00 75 1019.4
20260831162009 27 236 3.2 9.7 0.00 0.00 0.00 75 1019.4
20260831161523 27 252 3.2 11.3 0.00 0.00 0.00 76 1019.4
20260831161010 27 227 4.8 11.3 0.00 0.00 0.00 77 1019.4
20260831160512 27 202 4.8 8.0 0.00 0.00 0.00 77 1019.3
20260831160026 27 210 3.2 8.0 0.00 0.00 0.00 78 1019.4
20260831155516 26 185 3.2 8.0 0.00 0.00 0.00 78 1019.5
20260831155016 26 155 3.2 8.0 0.00 0.00 0.00 77 1019.5
20260831154518 26 210 3.2 9.7 0.00 0.00 0.00 77 1019.4
20260831154002 26 211 4.8 9.7 0.00 0.00 0.00 77 1019.4
20260831153505 26 192 4.8 6.4 0.00 0.00 0.00 78 1019.3
20260831153012 26 202 3.2 8.0 0.00 0.00 0.00 79 1019.4
20260831152509 26 218 3.2 11.3 0.00 0.00 0.00 77 1019.4
20260831152007 26 273 1.6 11.3 0.00 0.00 0.00 76 1019.4
20260831151520 26 199 4.8 9.7 0.00 0.00 0.00 76 1019.3
20260831151009 26 185 6.4 9.7 0.00 0.00 0.00 75 1019.3
20260831150511 26 212 6.4 9.7 0.00 0.00 0.00 75 1019.3
20260831150027 26 234 3.2 14.5 0.00 0.00 0.00 76 1019.3
20260831145515 26 215 4.8 14.5 0.00 0.00 0.00 76 1019.2
20260831145014 26 242 4.8 9.7 0.00 0.00 0.00 76 1019.2
20260831144531 26 191 4.8 11.3 0.00 0.00 0.00 76 1019.2
20260831144012 26 225 3.2 11.3 0.00 0.00 0.00 76 1019.2
20260831143507 26 219 3.2 9.7 0.00 0.00 0.00 77 1019.2
20260831143015 26 192 4.8 9.7 0.00 0.00 0.00 77 1019.1
20260831142504 26 202 4.8 9.7 0.00 0.00 0.00 77 1019.0
20260831142006 26 254 4.8 8.0 0.00 0.00 0.00 77 1019.1
20260831141517 26 193 3.2 11.3 0.00 0.00 0.00 77 1019.0
20260831141008 25 184 6.4 11.3 0.00 0.00 0.00 76 1018.9
20260831140514 25 194 4.8 9.7 0.00 0.00 0.00 76 1018.9
20260831140033 25 215 4.8 9.7 0.00 0.00 0.00 78 1018.9
20260831135513 25 101 3.2 6.4 0.00 0.00 0.00 76 1018.9
20260831135015 25 182 3.2 8.0 0.00 0.00 0.00 77 1018.9
20260831134528 25 214 3.2 8.0 0.00 0.00 0.00 76 1018.9
20260831134015 25 211 3.2 8.0 0.00 0.00 0.00 76 1018.9
20260831133513 25 227 4.8 8.0 0.00 0.00 0.00 76 1018.9
20260831133034 25 190 4.8 11.3 0.00 0.00 0.00 75 1019.0
20260831132505 25 241 4.8 11.3 0.00 0.00 0.00 75 1019.0
20260831132006 25 205 4.8 9.7 0.00 0.00 0.00 75 1019.0
20260831131514 25 233 4.8 8.0 0.00 0.00 0.00 76 1018.9
20260831131009 24 226 3.2 8.0 0.00 0.00 0.00 76 1018.8
20260831130510 24 212 4.8 9.7 0.00 0.00 0.00 76 1018.8
20260831130023 24 194 3.2 9.7 0.00 0.00 0.00 77 1018.7
20260831125512 23 211 3.2 6.4 0.00 0.00 0.00 80 1018.7
20260831125013 23 195 3.2 6.4 0.00 0.00 0.00 81 1018.7
20260831124527 22 204 3.2 4.8 0.00 0.00 0.00 81 1018.7
20260831124015 22 197 3.2 6.4 0.00 0.00 0.00 81 1018.8
20260831123515 22 210 3.2 6.4 0.00 0.00 0.00 81 1018.7
20260831123030 22 183 3.2 6.4 0.00 0.00 0.00 81 1018.7
20260831122521 22 207 3.2 4.8 0.00 0.00 0.00 81 1018.7
20260831122015 22 193 1.6 6.4 0.00 0.00 0.00 82 1018.7
20260831121512 22 165 3.2 8.0 0.00 0.00 0.00 82 1018.6
20260831121006 22 203 3.2 8.0 0.00 0.00 0.00 82 1018.6
20260831120508 22 171 1.6 8.0 0.00 0.00 0.00 83 1018.7
20260831120018 22 188 3.2 6.4 0.00 0.00 0.00 83 1018.6
20260831115509 21 178 1.6 6.4 0.00 0.00 0.00 83 1018.6
20260831115012 21 198 1.6 6.4 0.00 0.00 0.00 83 1018.5
20260831114531 21 191 1.6 6.4 0.00 0.00 0.00 83 1018.5
20260831114013 21 198 1.6 4.8 0.00 0.00 0.00 83 1018.5
20260831113518 21 202 1.6 8.0 0.00 0.00 0.00 83 1018.5
20260831113030 21 200 3.2 8.0 0.00 0.00 0.00 83 1018.5
20260831112517 21 200 1.6 8.0 0.00 0.00 0.00 83 1018.6
20260831112017 21 205 3.2 8.0 0.00 0.00 0.00 83 1018.6
20260831111533 21 194 1.6 4.8 0.00 0.00 0.00 83 1018.5
20260831111015 21 185 1.6 4.8 0.00 0.00 0.00 83 1018.4
20260831110510 21 208 3.2 4.8 0.00 0.00 0.00 83 1018.5
20260831110014 22 191 3.2 4.8 0.00 0.00 0.00 83 1018.5
20260831105510 22 200 1.6 3.2 0.00 0.00 0.00 83 1018.4
20260831105010 22 199 1.6 3.2 0.00 0.00 0.00 83 1018.4
20260831104526 22 207 1.6 4.8 0.00 0.00 0.00 83 1018.4
20260831104013 22 202 1.6 4.8 0.00 0.00 0.00 83 1018.4
20260831103513 22 209 1.6 4.8 0.00 0.00 0.00 83 1018.2
20260831103027 21 186 3.2 4.8 0.00 0.00 0.00 84 1018.2
20260831102513 21 202 0.0 3.2 0.00 0.00 0.00 84 1018.2
20260831102017 21 198 0.0 3.2 0.00 0.00 0.00 85 1018.2
20260831101532 21 198 0.0 3.2 0.00 0.00 0.00 85 1018.1
20260831101017 21 198 0.0 3.2 0.00 0.00 0.00 85 1018.1
20260831100517 21 198 1.6 4.8 0.00 0.00 0.00 85 1018.0
20260831100037 21 198 0.0 4.8 0.00 0.00 0.00 85 1018.0
20260831095504 21 184 0.0 3.2 0.00 0.00 0.00 85 1017.9
20260831095009 21 178 0.0 3.2 0.00 0.00 0.00 85 1017.8
20260831094518 21 215 0.0 3.2 0.00 0.00 0.00 85 1017.9
20260831094011 21 215 0.0 3.2 0.00 0.00 0.00 85 1017.9
20260831093510 21 215 0.0 3.2 0.00 0.00 0.00 85 1018.0
20260831093031 21 215 0.0 3.2 0.00 0.00 0.00 85 1018.1
20260831092516 21 215 0.0 3.2 0.00 0.00 0.00 85 1018.0
20260831092013 21 213 0.0 3.2 0.00 0.00 0.00 85 1018.0
20260831091533 21 211 1.6 3.2 0.00 0.00 0.00 85 1018.0
20260831091014 21 211 0.0 3.2 0.00 0.00 0.00 85 1018.0
20260831090518 21 211 1.6 3.2 0.00 0.00 0.00 85 1018.1
20260831090034 21 192 1.6 3.2 0.00 0.00 0.00 85 1018.1
20260831085519 21 157 0.0 3.2 0.00 0.00 0.00 84 1018.1
20260831085015 22 157 0.0 3.2 0.00 0.00 0.00 85 1018.1
20260831084524 22 157 0.0 3.2 0.00 0.00 0.00 84 1018.1
20260831084009 22 137 0.0 3.2 0.00 0.00 0.00 84 1018.1
20260831083512 22 137 0.0 3.2 0.00 0.00 0.00 84 1018.1
20260831083003 21 137 1.6 3.2 0.00 0.00 0.00 85 1018.1
20260831082503 21 137 0.0 1.6 0.00 0.00 0.00 85 1018.1
20260831082003 21 137 0.0 3.2 0.00 0.00 0.00 86 1018.2
20260831081504 21 137 0.0 3.2 0.00 0.00 0.00 86 1018.1
20260831081004 21 137 0.0 0.0 0.00 0.00 0.00 86 1018.1
20260831080503 21 137 0.0 0.0 0.00 0.00 0.00 85 1018.1
20260831080007 22 137 0.0 0.0 0.00 0.00 0.00 85 1018.0
20260831075505 22 137 0.0 0.0 0.00 0.00 0.00 85 1017.9
20260831075005 22 137 0.0 3.2 0.00 0.00 0.00 84 1018.0
20260831074515 22 137 0.0 3.2 0.00 0.00 0.00 84 1018.0
20260831074009 22 137 0.0 3.2 0.00 0.00 0.00 83 1018.0
20260831073508 22 137 0.0 3.2 0.00 0.00 0.00 83 1018.1
20260831073023 22 137 1.6 3.2 0.00 0.00 0.00 82 1018.1
20260831072511 22 137 1.6 3.2 0.00 0.00 0.00 82 1018.0
20260831072004 22 137 1.6 4.8 0.00 0.00 0.00 82 1018.0
20260831071505 22 137 3.2 4.8 0.00 0.00 0.00 83 1018.0
20260831071002 22 139 3.2 4.8 0.00 0.00 0.00 83 1018.0
20260831070503 22 136 1.6 4.8 0.00 0.00 0.00 83 1018.0
20260831070008 22 142 3.2 4.8 0.00 0.00 0.00 83 1017.9
20260831065505 22 139 3.2 4.8 0.00 0.00 0.00 83 1018.0
20260831065004 22 139 1.6 4.8 0.00 0.00 0.00 83 1018.1
20260831064513 22 139 3.2 4.8 0.00 0.00 0.00 82 1018.1
20260831064007 22 139 1.6 4.8 0.00 0.00 0.00 82 1018.3
20260831063508 22 139 1.6 6.4 0.00 0.00 0.00 81 1018.3
20260831063018 22 137 3.2 6.4 0.00 0.00 0.00 81 1018.3
20260831062512 22 138 3.2 4.8 0.00 0.00 0.00 81 1018.4
20260831062011 22 139 3.2 4.8 0.00 0.00 0.00 81 1018.5
20260831061523 22 147 3.2 4.8 0.00 0.00 0.00 81 1018.5
20260831061004 22 141 3.2 4.8 0.00 0.00 0.00 81 1018.5
20260831060503 22 135 1.6 4.8 0.00 0.00 0.00 81 1018.5
20260831060005 22 140 1.6 3.2 0.00 0.00 0.00 80 1018.4
20260831055505 22 145 1.6 3.2 0.00 0.00 0.00 81 1018.5
20260831055003 22 145 1.6 3.2 0.00 0.00 0.00 81 1018.5
20260831054511 22 157 1.6 4.8 0.00 0.00 0.00 80 1018.5
20260831054004 22 157 1.6 4.8 0.00 0.00 0.00 81 1018.4
20260831053508 22 140 3.2 6.4 0.00 0.00 0.00 81 1018.5
20260831053014 22 134 3.2 6.4 0.00 0.00 0.00 81 1018.5
20260831052508 22 134 4.8 4.8 0.00 0.00 0.00 81 1018.5
20260831052011 22 140 3.2 4.8 0.00 0.00 0.00 81 1018.5
20260831051535 22 139 3.2 6.4 0.00 0.00 0.00 81 1018.5
20260831051013 22 136 4.8 6.4 0.00 0.00 0.00 81 1018.4
20260831050514 22 140 4.8 6.4 0.00 0.00 0.00 81 1018.4
20260831050005 22 139 3.2 4.8 0.00 0.00 0.00 82 1018.4
20260831045507 22 139 3.2 3.2 0.00 0.00 0.00 81 1018.5
20260831045003 22 144 1.6 3.2 0.00 0.00 0.00 82 1018.5
20260831044506 22 137 1.6 4.8 0.00 0.00 0.00 81 1018.5
20260831044005 22 137 3.2 4.8 0.00 0.00 0.00 82 1018.5
20260831043502 22 140 3.2 4.8 0.00 0.00 0.00 82 1018.3
20260831043016 22 137 3.2 4.8 0.00 0.00 0.00 82 1018.3
20260831042511 22 140 3.2 4.8 0.00 0.00 0.00 82 1018.3
20260831042011 22 153 1.6 4.8 0.00 0.00 0.00 82 1018.2
20260831041523 22 179 0.0 3.2 0.00 0.00 0.00 83 1018.2
20260831041013 22 179 1.6 1.6 0.00 0.00 0.00 83 1018.1
20260831040514 22 189 0.0 3.2 0.00 0.00 0.00 83 1018.2
20260831040028 22 189 0.0 3.2 0.00 0.00 0.00 82 1018.1
20260831035516 22 189 0.0 4.8 0.00 0.00 0.00 82 1018.1
20260831035005 22 147 3.2 6.4 0.00 0.00 0.00 82 1018.0
20260831034507 22 200 1.6 6.4 0.00 0.00 0.00 83 1018.2
20260831034005 22 190 1.6 4.8 0.00 0.00 0.00 83 1018.1
20260831033505 22 176 1.6 3.2 0.00 0.00 0.00 83 1018.1
20260831033017 22 171 1.6 6.4 0.00 0.00 0.00 83 1018.2
20260831032507 22 188 1.6 6.4 0.00 0.00 0.00 83 1018.2
20260831032007 23 190 3.2 6.4 0.00 0.00 0.00 82 1018.3
20260831031516 23 165 1.6 3.2 0.00 0.00 0.00 80 1018.3
20260831031013 23 155 1.6 4.8 0.00 0.00 0.00 80 1018.3
20260831030514 23 158 0.0 4.8 0.00 0.00 0.00 80 1018.4
20260831030026 23 167 0.0 6.4 0.00 0.00 0.00 80 1018.4
20260831025511 23 148 3.2 6.4 0.00 0.00 0.00 81 1018.4
20260831025015 23 140 3.2 9.7 0.00 0.00 0.00 81 1018.5
20260831024530 23 150 4.8 8.0 0.00 0.00 0.00 82 1018.4
20260831024003 23 134 3.2 4.8 0.00 0.00 0.00 82 1018.4
20260831023505 22 146 3.2 4.8 0.00 0.00 0.00 83 1018.4
20260831023011 22 142 3.2 4.8 0.00 0.00 0.00 84 1018.4
20260831022506 22 141 1.6 3.2 0.00 0.00 0.00 84 1018.5
20260831022007 22 144 0.0 1.6 0.00 0.00 0.00 85 1018.5
20260831021514 22 144 0.0 1.6 0.00 0.00 0.00 85 1018.6
20260831021014 22 144 1.6 1.6 0.00 0.00 0.00 85 1018.6
20260831020510 22 144 1.6 3.2 0.00 0.00 0.00 85 1018.5
20260831020020 22 144 1.6 3.2 0.00 0.00 0.00 85 1018.6
20260831015513 22 144 1.6 3.2 0.00 0.00 0.00 85 1018.6
20260831015014 22 144 1.6 3.2 0.00 0.00 0.00 85 1018.5
20260831014526 22 140 1.6 4.8 0.00 0.00 0.00 86 1018.4
20260831014015 22 139 3.2 6.4 0.00 0.00 0.00 86 1018.4
20260831013517 22 142 3.2 6.4 0.00 0.00 0.00 86 1018.3
20260831013008 22 138 4.8 4.8 0.00 0.00 0.00 85 1018.3
20260831012503 22 142 1.6 3.2 0.00 0.00 0.00 85 1018.3
20260831012002 22 142 1.6 3.2 0.00 0.00 0.00 86 1018.3
20260831011512 23 142 0.0 3.2 0.00 0.00 0.00 85 1018.3
20260831011007 23 142 0.0 3.2 0.00 0.00 0.00 85 1018.2
20260831010508 23 142 0.0 1.6 0.00 0.00 0.00 85 1018.1
20260831010017 23 142 1.6 1.6 0.00 0.00 0.00 85 1018.0
20260831005512 23 142 1.6 1.6 0.00 0.00 0.00 85 1018.1
20260831005012 23 142 1.6 1.6 0.00 0.00 0.00 85 1018.1
20260831004529 23 142 1.6 3.2 0.00 0.00 0.00 86 1018.1
20260831004014 23 142 1.6 3.2 0.00 0.00 0.00 86 1018.0
20260831003514 23 146 3.2 3.2 0.00 0.00 0.00 86 1018.1
20260831003036 23 163 1.6 3.2 0.00 0.00 0.00 1018.0
20260831002514 23 163 1.6 4.8 0.00 0.00 0.00 84 1018.0
20260831002003 23 167 1.6 4.8 0.00 0.00 0.00 84 1017.9
20260831001514 24 167 0.0 1.6 0.00 0.00 0.00 84 1018.0
20260831001010 24 167 1.6 1.6 0.00 0.00 0.00 82 1018.1
20260831000507 25 167 1.6 4.8 0.00 0.00 0.00 80 1018.2
20260831000019 25 167 1.6 4.8 0.00 0.00 0.00 80 1018.2
20260830235510 25 259 0.0 3.2 0.00 0.00 0.00 79 1018.3
20260830235013 25 284 0.0 0.0 0.00 0.00 0.00 76 1018.4
20260830234535 26 284 0.0 0.0 0.00 0.00 0.00 76 1018.5
20260830234013 26 284 0.0 0.0 0.00 0.00 0.00 76 1018.4
20260830233515 26 284 0.0 0.0 0.00 0.00 0.00 77 1018.4
20260830233028 26 284 0.0 0.0 0.00 0.00 0.00 74 1018.4
20260830232516 26 284 0.0 1.6 0.00 0.00 0.00 72 1018.4
20260830232015 27 284 0.0 1.6 0.00 0.00 0.00 70 1018.4
20260830231532 27 284 0.0 3.2 0.00 0.00 0.00 69 1018.4
20260830231017 27 284 0.0 3.2 0.00 0.00 0.00 69 1018.5
20260830230507 27 284 0.0 3.2 0.00 0.00 0.00 70 1018.5
20260830230015 27 284 0.0 3.2 0.00 0.00 0.00 68 1018.5
20260830225508 27 200 0.0 3.2 0.00 0.00 0.00 68 1018.5
20260830225009 27 311 0.0 3.2 0.00 0.00 0.00 68 1018.5
20260830224519 27 323 1.6 3.2 0.00 0.00 0.00 66 1018.5
20260830224011 28 242 0.0 3.2 0.00 0.00 0.00 67 1018.4
20260830223516 28 235 0.0 3.2 0.00 0.00 0.00 66 1018.4
20260830223026 28 249 1.6 3.2 0.00 0.00 0.00 65 1018.4
20260830222515 28 219 1.6 4.8 0.00 0.00 0.00 67 1018.3
20260830222015 27 197 1.6 4.8 0.00 0.00 0.00 68 1018.4
20260830221538 27 218 1.6 4.8 0.00 0.00 0.00 66 1018.1
20260830221016 27 188 1.6 4.8 0.00 0.00 0.00 66 1018.1
20260830220517 27 200 0.0 8.0 0.00 0.00 0.00 67 1018.2
20260830220033 27 208 3.2 8.0 0.00 0.00 0.00 65 1018.0
20260830215507 27 200 3.2 8.0 0.00 0.00 0.00 65 1018.1
20260830215008 27 200 4.8 9.7 0.00 0.00 0.00 64 1018.1
20260830214518 28 221 1.6 9.7 0.00 0.00 0.00 65 1018.0
20260830214011 28 200 3.2 9.7 0.00 0.00 0.00 63 1017.9
20260830213511 28 157 4.8 12.9 0.00 0.00 0.00 65 1017.9
20260830213032 28 243 6.4 12.9 0.00 0.00 0.00 63 1017.8
20260830212512 28 221 4.8 11.3 0.00 0.00 0.00 64 1017.9
20260830212012 28 179 3.2 11.3 0.00 0.00 0.00 66 1017.9
20260830211532 28 242 4.8 11.3 0.00 0.00 0.00 64 1017.9
20260830211020 28 202 4.8 11.3 0.00 0.00 0.00 64 1017.8
20260830210516 28 240 3.2 9.7 0.00 0.00 0.00 65 1017.7
20260830210035 28 232 4.8 11.3 0.00 0.00 0.00 64 1017.8
20260830205516 28 242 6.4 11.3 0.00 0.00 0.00 62 1018.0
20260830205017 27 215 3.2 16.1 0.00 0.00 0.00 64 1018.0
20260830204516 28 209 6.4 16.1 0.00 0.00 0.00 62 1018.1
20260830204009 28 237 9.7 19.3 0.00 0.00 0.00 62 1018.2
20260830203510 28 248 8.0 19.3 0.00 0.00 0.00 61 1018.1
20260830203025 28 205 6.4 14.5 0.00 0.00 0.00 64 1018.0
20260830202513 28 204 8.0 14.5 0.00 0.00 0.00 61 1018.0
20260830202012 28 137 4.8 17.7 0.00 0.00 0.00 61 1018.1
20260830201527 28 168 6.4 17.7 0.00 0.00 0.00 63 1018.0
20260830201013 28 184 6.4 19.3 0.00 0.00 0.00 63 1018.1
20260830200505 28 161 11.3 19.3 0.00 0.00 0.00 62 1017.9
20260830200009 28 238 8.0 12.9 0.00 0.00 0.00 68 1018.0
20260830195506 27 193 6.4 14.5 0.00 0.00 0.00 67 1018.2
20260830195005 27 208 4.8 16.1 0.00 0.00 0.00 70 1018.2
20260830194514 27 128 8.0 16.1 0.00 0.00 0.00 69 1018.2
20260830194007 27 184 4.8 17.7 0.00 0.00 0.00 70 1018.3
20260830193509 26 155 4.8 17.7 0.00 0.00 0.00 73 1018.1
20260830193018 26 209 4.8 16.1 0.00 0.00 0.00 76 1018.3
20260830192511 25 163 6.4 16.1 0.00 0.00 0.00 78 1018.2
20260830192012 25 133 6.4 14.5 0.00 0.00 0.00 80 1017.9
20260830191531 25 150 4.8 12.9 0.00 0.00 0.00 80 1017.9
20260830191013 24 142 6.4 11.3 0.00 0.00 0.00 80 1018.2
20260830190513 24 142 3.2 6.4 0.00 0.00 0.00 82 1018.6
20260830190035 24 142 3.2 4.8 0.00 0.00 0.00 81 1018.8
20260830185505 23 142 3.2 4.8 0.00 0.00 0.00 81 1019.0
20260830185004 23 143 1.6 8.0 0.00 0.00 0.00 83 1019.1
20260830184509 23 127 3.2 8.0 0.00 0.00 0.00 82 1019.1
20260830184003 23 132 3.2 8.0 0.00 0.00 0.00 81 1019.1
20260830183506 23 135 3.2 9.7 0.00 0.00 0.00 83 1019.1
20260830183015 23 145 4.8 9.7 0.00 0.00 0.00 83 1019.1
20260830182511 23 125 4.8 9.7 0.00 0.00 0.00 81 1019.3
20260830182012 23 123 6.4 9.7 0.00 0.00 0.00 79 1019.5
20260830181524 24 153 3.2 4.8 0.00 0.00 0.00 78 1019.8
20260830181018 24 142 3.2 4.8 0.00 0.00 0.00 77 1020.1
20260830180516 24 146 3.2 4.8 0.00 0.00 0.00 77 1020.3
20260830180031 25 150 1.6 6.4 0.00 0.00 0.00 76 1020.5
20260830175514 25 148 1.6 6.4 0.00 0.00 0.00 76 1020.6
20260830175014 25 154 1.6 4.8 0.00 0.00 0.00 75 1020.8
20260830174509 25 160 1.6 4.8 0.00 0.00 0.00 74 1020.7
20260830174003 25 215 3.2 4.8 0.00 0.00 0.00 75 1020.9
20260830173507 25 142 1.6 4.8 0.00 0.00 0.00 72 1020.9
20260830173015 25 148 1.6 4.8 0.00 0.00 0.00 73 1021.0
20260830172509 25 136 3.2 3.2 0.00 0.00 0.00 72 1021.2
20260830172012 25 136 1.6 3.2 0.00 0.00 0.00 73 1021.3
20260830171523 25 70 1.6 3.2 0.00 0.00 0.00 71 1021.5
20260830171012 25 70 0.0 3.2 0.00 0.00 0.00 73 1021.6